When you browse on this site, cookies collect data to enhance your experience and personalize the content and advertising you see.
Visit our Privacy Policy to learn more. By continuing to use the site, you agree to this use of cookies and data.
  • In Belgien
  • Länderverzeichnis
  • Für 7 Tage
  • Wassertemperatur
  • Satellitenkarten
  • Wetterkarte
  • Widgets
  • user-avatar
    Anmelden

    Stündliche Wetter Bouillon

    Heute, 14 Dezember, Freitag

    Zeit Temperatur Niederschläge Wind Luftdruck Luftfeuchtigkeit
    00:00 -5°C° 0 mm 3 m/S 726 mmHg 77%
    01:00 -5°C° 0 mm 3 m/S 726 mmHg 78%
    02:00 -5°C° 0 mm 3 m/S 726 mmHg 79%
    03:00 -5°C° 0 mm 3 m/S 726 mmHg 81%
    04:00 -6°C° 0 mm 3 m/S 726 mmHg 81%
    05:00 -5°C° 0 mm 2 m/S 726 mmHg 82%
    06:00 -5°C° 0 mm 2 m/S 726 mmHg 83%
    07:00 -5°C° 0 mm 2 m/S 727 mmHg 80%
    08:00 -5°C° 0 mm 3 m/S 727 mmHg 77%
    09:00 -5°C° 0 mm 3 m/S 727 mmHg 74%
    10:00 -4°C° 0 mm 3 m/S 728 mmHg 69%
    11:00 -2°C° 0 mm 3 m/S 728 mmHg 64%
    12:00 -1°C° 0 mm 3 m/S 728 mmHg 59%
    13:00 -2°C° 0 mm 3 m/S 728 mmHg 60%
    14:00 -2°C° 0 mm 2 m/S 728 mmHg 62%
    15:00 -2°C° 0 mm 2 m/S 728 mmHg 64%
    16:00 -3°C° 0 mm 2 m/S 728 mmHg 67%
    17:00 -2°C° 0 mm 1 m/S 729 mmHg 71%
    18:00 -2°C° 0 mm 1 m/S 729 mmHg 74%
    19:00 -5°C° 0 mm 2 m/S 729 mmHg 76%
    20:00 -5°C° 0 mm 2 m/S 729 mmHg 77%
    21:00 -5°C° 0 mm 2 m/S 729 mmHg 79%
    22:00 -3°C° 0 mm 1 m/S 729 mmHg 80%
    23:00 -3°C° 0 mm 1 m/S 729 mmHg 81%

    Morgen, 15 Dezember, Samstag

    Zeit Temperatur Niederschläge Wind Luftdruck Luftfeuchtigkeit
    00:00 -3°C° 0 mm 1 m/S 729 mmHg 82%
    01:00 -4°C° 0 mm 1 m/S 729 mmHg 82%
    02:00 -4°C° 0 mm 1 m/S 729 mmHg 82%
    03:00 -4°C° 0 mm 1 m/S 729 mmHg 83%
    04:00 -6°C° 0 mm 2 m/S 729 mmHg 83%
    05:00 -6°C° 0 mm 2 m/S 729 mmHg 83%
    06:00 -6°C° 0 mm 2 m/S 728 mmHg 83%
    07:00 -6°C° 0 mm 3 m/S 728 mmHg 79%
    08:00 -6°C° 0 mm 3 m/S 729 mmHg 75%
    09:00 -5°C° 0 mm 4 m/S 729 mmHg 72%
    10:00 -4°C° 0 mm 4 m/S 728 mmHg 68%
    11:00 -3°C° 0 mm 4 m/S 728 mmHg 63%
    12:00 -2°C° 0 mm 4 m/S 728 mmHg 59%
    13:00 -3°C° 0 mm 4 m/S 727 mmHg 60%
    14:00 -4°C° 0 mm 5 m/S 726 mmHg 61%
    15:00 -4°C° 0 mm 5 m/S 726 mmHg 62%
    16:00 -4°C° 0 mm 5 m/S 725 mmHg 61%
    17:00 -4°C° 0 mm 6 m/S 725 mmHg 61%
    18:00 -4°C° 0 mm 6 m/S 724 mmHg 60%
    19:00 -4°C° 0.5 mm 7 m/S 723 mmHg 66%
    20:00 -4°C° 0.5 mm 7 m/S 723 mmHg 72%
    21:00 -4°C° 0.5 mm 7 m/S 722 mmHg 78%
    22:00 -4°C° 1.5 mm 7 m/S 721 mmHg 83%
    23:00 -3°C° 1.5 mm 7 m/S 721 mmHg 87%

    übermorgen, 16 Dezember, Sonntag

    Zeit Temperatur Niederschläge Wind Luftdruck Luftfeuchtigkeit
    00:00 -3°C° 1.5 mm 7 m/S 720 mmHg 91%
    01:00 -3°C° 0.2 mm 6 m/S 720 mmHg 93%
    02:00 -2°C° 0.2 mm 5 m/S 720 mmHg 94%
    03:00 -2°C° 0.2 mm 4 m/S 719 mmHg 95%
    04:00 -1°C° 0.1 mm 3 m/S 720 mmHg 96%
    05:00 0°C° 0.1 mm 3 m/S 720 mmHg 97%
    06:00 0°C° 0.1 mm 3 m/S 720 mmHg 97%
    07:00 0°C° 0.1 mm 3 m/S 721 mmHg 97%
    08:00 0°C° 0.1 mm 3 m/S 721 mmHg 97%
    09:00 +1°C° 0.1 mm 3 m/S 721 mmHg 98%
    10:00 +1°C° 0.4 mm 3 m/S 721 mmHg 98%
    11:00 +1°C° 0.4 mm 3 m/S 722 mmHg 97%
    12:00 +1°C° 0.4 mm 3 m/S 722 mmHg 97%
    13:00 +1°C° 0.1 mm 3 m/S 722 mmHg 97%
    14:00 +1°C° 0.1 mm 3 m/S 722 mmHg 97%
    15:00 +1°C° 0.1 mm 3 m/S 722 mmHg 98%
    16:00 +1°C° 0 mm 3 m/S 722 mmHg 98%
    17:00 +2°C° 0 mm 2 m/S 722 mmHg 98%
    18:00 +2°C° 0 mm 2 m/S 722 mmHg 98%
    19:00 +2°C° 0 mm 2 m/S 723 mmHg 98%
    20:00 +1°C° 0 mm 2 m/S 723 mmHg 97%
    21:00 +1°C° 0 mm 2 m/S 723 mmHg 97%
    22:00 +1°C° 0 mm 2 m/S 723 mmHg 97%
    23:00 +1°C° 0 mm 2 m/S 724 mmHg 97%

    17 Dezember, Montag

    Zeit Temperatur Niederschläge Wind Luftdruck Luftfeuchtigkeit
    00:00 +1°C° 0 mm 2 m/S 724 mmHg 97%
    01:00 +1°C° 0 mm 2 m/S 724 mmHg 97%
    02:00 +1°C° 0 mm 2 m/S 724 mmHg 97%
    03:00 0°C° 0 mm 3 m/S 723 mmHg 97%
    04:00 0°C° 0.2 mm 3 m/S 724 mmHg 97%
    05:00 0°C° 0.2 mm 3 m/S 724 mmHg 96%
    06:00 0°C° 0.2 mm 3 m/S 724 mmHg 96%
    07:00 +1°C° 0.7 mm 3 m/S 724 mmHg 96%
    08:00 +1°C° 0.7 mm 3 m/S 725 mmHg 96%
    09:00 +1°C° 0.7 mm 3 m/S 725 mmHg 96%
    10:00 +2°C° 0.2 mm 2 m/S 726 mmHg 96%
    11:00 +2°C° 0.2 mm 2 m/S 726 mmHg 96%
    12:00 +3°C° 0.2 mm 2 m/S 727 mmHg 96%
    13:00 +3°C° 0.1 mm 2 m/S 727 mmHg 97%
    14:00 +3°C° 0.1 mm 2 m/S 727 mmHg 97%
    15:00 +3°C° 0.1 mm 2 m/S 728 mmHg 97%
    16:00 +2°C° 0 mm 2 m/S 728 mmHg 97%
    17:00 +2°C° 0 mm 2 m/S 729 mmHg 97%
    18:00 +2°C° 0 mm 2 m/S 730 mmHg 97%
    19:00 +2°C° 0 mm 2 m/S 730 mmHg 97%
    20:00 +2°C° 0 mm 2 m/S 730 mmHg 97%
    21:00 +2°C° 0 mm 2 m/S 731 mmHg 97%
    22:00 +2°C° 0 mm 2 m/S 731 mmHg 97%
    23:00 +1°C° 0 mm 2 m/S 730 mmHg 97%

    18 Dezember, Dienstag

    Zeit Temperatur Niederschläge Wind Luftdruck Luftfeuchtigkeit
    00:00 +1°C° 0 mm 2 m/S 730 mmHg 97%
    01:00 0°C° 0 mm 3 m/S 730 mmHg 97%
    02:00 0°C° 0 mm 3 m/S 730 mmHg 97%
    03:00 0°C° 0 mm 3 m/S 730 mmHg 97%
    04:00 0°C° 0 mm 3 m/S 729 mmHg 96%
    05:00 -1°C° 0 mm 4 m/S 729 mmHg 96%
    06:00 -1°C° 0 mm 4 m/S 729 mmHg 96%
    07:00 -1°C° 0 mm 4 m/S 728 mmHg 95%
    08:00 -1°C° 0 mm 4 m/S 728 mmHg 93%
    09:00 0°C° 0 mm 5 m/S 728 mmHg 92%
    10:00 0°C° 0 mm 5 m/S 727 mmHg 87%
    11:00 +1°C° 0 mm 6 m/S 726 mmHg 82%
    12:00 +2°C° 0 mm 6 m/S 725 mmHg 77%
    13:00 +2°C° 0 mm 6 m/S 724 mmHg 76%
    14:00 +2°C° 0 mm 6 m/S 723 mmHg 75%
    15:00 +1°C° 0 mm 6 m/S 722 mmHg 75%
    16:00 +1°C° 0 mm 6 m/S 722 mmHg 76%
    17:00 +1°C° 0 mm 6 m/S 722 mmHg 77%
    18:00 +1°C° 0 mm 5 m/S 722 mmHg 78%
    19:00 +1°C° 0.7 mm 5 m/S 722 mmHg 81%
    20:00 +2°C° 0.7 mm 5 m/S 722 mmHg 85%
    21:00 +2°C° 0.7 mm 5 m/S 722 mmHg 88%
    22:00 +2°C° 0.9 mm 5 m/S 722 mmHg 90%
    23:00 +2°C° 0.9 mm 5 m/S 722 mmHg 92%

    19 Dezember, Mittwoch

    Zeit Temperatur Niederschläge Wind Luftdruck Luftfeuchtigkeit
    00:00 +3°C° 0.9 mm 5 m/S 722 mmHg 94%
    01:00 +3°C° 0 mm 5 m/S 722 mmHg 95%
    02:00 +4°C° 0 mm 4 m/S 722 mmHg 95%
    03:00 +4°C° 0 mm 4 m/S 722 mmHg 95%
    04:00 +3°C° 0 mm 4 m/S 722 mmHg 95%
    05:00 +3°C° 0 mm 4 m/S 722 mmHg 95%
    06:00 +3°C° 0 mm 4 m/S 722 mmHg 95%
    07:00 +2°C° 0.1 mm 5 m/S 722 mmHg 94%
    08:00 +3°C° 0.1 mm 5 m/S 722 mmHg 93%
    09:00 +3°C° 0.1 mm 6 m/S 722 mmHg 92%
    10:00 +3°C° 0.7 mm 6 m/S 722 mmHg 91%
    11:00 +3°C° 0.7 mm 6 m/S 722 mmHg 90%
    12:00 +3°C° 0.7 mm 6 m/S 722 mmHg 89%
    13:00 +3°C° 0.1 mm 5 m/S 722 mmHg 88%
    14:00 +3°C° 0.1 mm 5 m/S 722 mmHg 87%
    15:00 +4°C° 0.1 mm 4 m/S 722 mmHg 86%
    16:00 +4°C° 0 mm 4 m/S 722 mmHg 87%
    17:00 +3°C° 0 mm 4 m/S 722 mmHg 89%
    18:00 +2°C° 0 mm 5 m/S 722 mmHg 91%
    19:00 +2°C° 0 mm 5 m/S 722 mmHg 91%
    20:00 +2°C° 0 mm 5 m/S 722 mmHg 91%
    21:00 +2°C° 0 mm 5 m/S 722 mmHg 91%
    22:00 +2°C° 0.1 mm 6 m/S 722 mmHg 91%
    23:00 +2°C° 0.1 mm 6 m/S 722 mmHg 92%
    Mehr zeigen